Rome, GA

5:59 PM EST on November 16, 2019 (GMT -0500)
Russell

Weather History for KRMG - September, 2019

Change the Weather History Date:

Monday, September 23, 2019

  Actual Average Record
Temperature  
Mean Temperature 75 °F 70 °F  
Max Temperature 95 °F 82 °F 96 °F (2016)
Min Temperature 55 °F 58 °F 7 °F (1996)
Degree Days  
Heating Degree Days 0 1  
Month to date heating degree days 0 4  
Since 1 July heating degree days 0 4  
Cooling Degree Days 10 5  
Month to date cooling degree days 341 193  
Year to date cooling degree days 2100 1559  
Growing Degree Days 25 (Base 50)    
Moisture  
Dew Point 59 °F    
Average Humidity 59    
Maximum Humidity 93    
Minimum Humidity 30    
Precipitation  
Precipitation 0.00 in 0.12 in 0.13 in (2011)
Month to date precipitation T 2.45  
Year to date precipitation 42.45 37.87  
Sea Level Pressure  
Sea Level Pressure 30.03 in    
Wind  
Wind Speed 1 mph ()    
Max Wind Speed 13 mph    
Max Gust Speed 17 mph    
Visibility 10.0 miles    
Events      
T = Trace of Precipitation, MM = Missing Value Source: Averaged Metar Reports

Daily Weather History Graph

Daily Weather History Graph

Search for Another Location

Airport or City:

Astronomy

Sep. 23, 2019 Rise Set
Actual Time 7:29 AM EDT 7:36 PM EDT
Civil Twilight 7:04 AM EDT 8:01 PM EDT
Nautical Twilight 6:34 AM EDT 8:30 PM EDT
Astronomical Twilight 6:05 AM EDT 9:00 PM EDT
Moon 1:27 AM EDT (9/23) 4:13 PM EDT (9/23)
Length of Visible Light 12h 57m
Length of Day
12h 07m
Waning Crescent, 33% of the Moon is Illuminated
Sep 23
Waning Crescent
Sep 28
New
Oct 5
First Quarter
Oct 13
Full
Oct 21
Last Quarter

Hourly Weather History & Observations

Time (EDT) Temp. Heat Index Dew Point Humidity Pressure Visibility Wind Dir Wind Speed Gust Speed Precip Events Conditions
1:53 AM 62.1 °F - 57.0 °F 84% 30.08 in 10.0 mi Calm Calm - N/A   Clear
2:53 AM 60.1 °F - 55.9 °F 86% 30.08 in 10.0 mi Calm Calm - N/A   Clear
3:53 AM 59.0 °F - 55.0 °F 87% 30.07 in 10.0 mi Calm Calm - N/A   Clear
4:53 AM 60.1 °F - 55.9 °F 86% 30.07 in 10.0 mi Calm Calm - N/A   Clear
5:53 AM 59.0 °F - 55.0 °F 87% 30.08 in 10.0 mi Calm Calm - N/A   Clear
6:53 AM 57.0 °F - 55.0 °F 93% 30.09 in 10.0 mi Calm Calm - N/A   Clear
7:53 AM 57.0 °F - 54.0 °F 89% 30.10 in 10.0 mi NNE 3.5 mph - N/A   Clear
8:53 AM 64.9 °F - 57.0 °F 75% 30.11 in 10.0 mi Calm Calm - N/A   Clear
9:53 AM 70.0 °F - 57.9 °F 65% 30.11 in 10.0 mi Calm Calm - N/A   Clear
10:53 AM 78.1 °F - 59.0 °F 52% 30.10 in 10.0 mi Calm Calm - N/A   Clear
11:53 AM 84.9 °F 84.2 °F 57.9 °F 40% 30.08 in 10.0 mi Variable 4.6 mph - N/A   Clear
12:53 PM 90.0 °F 88.8 °F 57.9 °F 34% 30.05 in 10.0 mi WSW 9.2 mph 17.3 mph N/A   Clear
1:53 PM 91.9 °F 90.8 °F 57.9 °F 32% 30.03 in 10.0 mi Variable 4.6 mph 17.3 mph N/A   Clear
2:53 PM 90.0 °F 89.1 °F 59.0 °F 35% 30.00 in 10.0 mi NNW 5.8 mph - N/A   Clear
3:53 PM 93.0 °F 92.3 °F 59.0 °F 32% 29.98 in 10.0 mi Calm Calm - N/A   Partly Cloudy
4:53 PM 93.9 °F 92.9 °F 57.9 °F 30% 29.96 in 10.0 mi NW 4.6 mph - N/A   Partly Cloudy
5:53 PM 91.0 °F 90.2 °F 59.0 °F 34% 29.96 in 10.0 mi Variable 3.5 mph - N/A   Overcast
6:53 PM 89.1 °F 88.8 °F 60.1 °F 38% 29.96 in 10.0 mi NW 5.8 mph - N/A   Overcast
7:53 PM 87.1 °F 87.5 °F 62.1 °F 43% 29.96 in 10.0 mi NNW 4.6 mph - N/A   Overcast
8:53 PM 84.9 °F 85.4 °F 62.1 °F 46% 29.96 in 10.0 mi North 3.5 mph - N/A   Overcast
9:53 PM 82.9 °F 84.4 °F 64.0 °F 53% 29.96 in 10.0 mi Calm Calm - N/A   Overcast
10:53 PM 79.0 °F - 64.9 °F 62% 29.96 in 10.0 mi Calm Calm - N/A   Overcast
11:53 PM 79.0 °F - 66.0 °F 64% 29.95 in 10.0 mi Calm Calm - N/A   Overcast